sat.trackr.live / text

‹ back to catalog

STARLINK-35929

NORAD 66625 · 2025-271J

PAYLOAD ACTIVE UNKNOWN

§ Identity

Operator
Country
US
Launch date
2025-11-23
Launch site
AFWTR
Launch vehicle
Mass (kg)
RCS (m²)

Purposes: comms

External: N2YO · Heavens-Above · Gunter

§ Orbital elements

Epoch: 2026-09-20T14:31:19.424352Z

Period
93.85 min
Inclination
53.1598°
Eccentricity
0.0001774
Mean motion
15.34394290 rev/d
Perigee alt
461.5 km
Apogee alt
463.9 km
Semi-major
6,840.9 km
B*
6.0313e-4
RAAN
309.2851°
Arg perigee
53.5819°
Mean anomaly
306.5347°
Rev number
4,747

§ Raw data

STARLINK-359291 66625U 25271J   26263.60508593  .00020052  00000+0  60313-3 0  99912 66625  53.1598 309.2851 0001774  53.5819 306.5347 15.34394290 47476

JSON: /api/v1/satellites/66625 · /tle

For live sub-satellite position, see the globe view (requires WebGL).

§ Visibility from observer

Set your observer location to see the next 7 days of passes ≥ 10°. The values pass through the URL so the page stays shareable.

No JS? Fill the form by hand. The geolocation button needs JavaScript.